Location: Bretagne
(43.8474°N, 0.4650°W)
Time: 16:04:40
(UTC+00:00)

UNK - Pass Details

Date: 15 January 2026
Orbit: 654 x 673 km, 98.4° (Epoch: 18 February)

Event Time Altitude Azimuth Distance (km) Brightness Sun altitude
Rises 17:37:18 0° 11° (N) 2,989 6.8 -8.6°
Reaches altitude 10° 17:39:32 10° 9° (N) 2,073 6.0 -8.9°
Maximum altitude 17:44:01 69° 286° (WNW) 703 4.0 -9.7°
Drops below altitude 10° 17:48:29 10° 204° (SSW) 2,059 6.9 -10.4°
Sets 17:50:42 0° 202° (SSW) 2,968 7.7 -10.8°
